Погода в Нерете

Латвия     56°12′10″N   25°18′29″E
темп.,
°C
ветер,
м/с
пор.,
м/с
влажн.,
%
обл.,
%
осадки,
мм/ч
давл.,
гПа
погр.,
м
5 марта, пт
пт523:00−2сз39670 0.0 1012474
02:00−2зсз48815 0.0 1012804
05:00−3зсз496983 0.1 10131036
08:00−3ссз595779 0.1 10141211
11:00−1ссз48350 0.0 10161683
14:00+1сз47350 0.0 10162095
17:00−2з358295 0.1 1017467
20:00−2зсз268297 1.1 1018317
6 марта, сб
сб623:00−3с488496 0.3 1020804
02:00−4ссз376777 0.3 1022370
05:00−5сз26670 0.0 1023255
08:00−5зсз37770 0.0 1024404
11:00−1з47560 0.0 10231177
14:00+1зюз610486 0.0 10201470
17:00+1зюз61257100 0.0 10171492
20:000зюз71661100 0.0 10141314
7 марта, вс
вс723:00−1зюз81578100 0.0 10091230
02:00+1з81596100 0.9 10051165
05:00−2сз71484100 2.4 10051552
08:00−3зсз3106187 2.4 10071536
11:00−1з6114787 0.1 10062175
14:000з7125294 0.4 10051971
17:00−2зсз81567100 0.4 10031810
20:00−3сз6156597 0.8 10041795
8 марта, пн
пн823:00−4сз61382100 0.1 10071338
02:00−4сз4977100 0.4 10091207
05:00−5ссз2586100 0.1 1009509
08:00−5ссз258386 0.1 1011598
11:00−4ссз466957 0.1 1013976
14:00−3с575478 0.1 10151272
17:00−5с5760100 0.0 10161294
20:00−7с386698 0.0 10201017
9 марта, вт
вт923:00−8ссв38670 0.0 1022643
02:00−9ссз25730 0.0 1024228
05:00−10ссз23780 0.0 102590
08:00−9зсз127212 0.0 1026116
11:00−4зсз23490 0.0 1027629
14:00−2з33490 0.0 1027866
17:00−3зюз35540 0.0 1027751
20:00−5юз37640 0.0 1028197